This is the latest recevied weather packets stored in our database for station/object G4MDP-13. If no packets are shown the sender has not sent any weather packets the latest 1 day(s).
| Time | Temp. | Humidity | Pressure | Rain* | Wind** | Luminosity | Snow |
|---|---|---|---|---|---|---|---|
| 1777990758 | 18.33° C | 39% | 1005 hPa | 0 mm | 1.79 m/s, 155° | - | - |
| 1777990757 | 18.33° C | 39% | 1005 hPa | 0 mm | 1.79 m/s, 155° | - | - |
| 1777989917 | 17.78° C | 40% | 1005 hPa | 0 mm | 1.79 m/s, 165° | - | - |
| 1777989860 | 17.78° C | 41% | 1005.1 hPa | 0 mm | 1.79 m/s, 163° | - | - |
| 1777989858 | 17.78° C | 41% | 1005.1 hPa | 0 mm | 1.79 m/s, 163° | - | - |
| 1777988958 | 17.22° C | 46% | 1005.2 hPa | 0 mm | 1.34 m/s, 150° | - | - |
| 1777988957 | 17.22° C | 46% | 1005.2 hPa | 0 mm | 1.34 m/s, 150° | - | - |
| 1777988117 | 17.22° C | 47% | 1005.2 hPa | 0 mm | 1.34 m/s, 151° | - | - |
| 1777988061 | 17.22° C | 47% | 1005.3 hPa | 0 mm | 1.34 m/s, 150° | - | - |
| 1777988058 | 17.22° C | 47% | 1005.3 hPa | 0 mm | 1.34 m/s, 150° | - | - |
| 1777987158 | 17.22° C | 47% | 1005.3 hPa | 0 mm | 1.34 m/s, 151° | - | - |
| 1777987157 | 17.22° C | 47% | 1005.3 hPa | 0 mm | 1.34 m/s, 151° | - | - |
| 1777986317 | 17.78° C | 46% | 1005.4 hPa | 0 mm | 1.79 m/s, 166° | - | - |
| 1777986260 | 18.33° C | 46% | 1005.4 hPa | 0 mm | 1.79 m/s, 168° | - | - |
| 1777986258 | 18.33° C | 46% | 1005.4 hPa | 0 mm | 1.79 m/s, 168° | - | - |
| 1777985358 | 17.78° C | 48% | 1005.3 hPa | 0 mm | 1.34 m/s, 147° | - | - |
| 1777985357 | 17.78° C | 48% | 1005.3 hPa | 0 mm | 1.34 m/s, 147° | - | - |
| 1777984517 | 17.78° C | 47% | 1005.3 hPa | 0 mm | 1.34 m/s, 155° | - | - |
| 1777984460 | 18.33° C | 47% | 1005.2 hPa | 0 mm | 1.34 m/s, 153° | - | - |
| 1777984458 | 18.33° C | 47% | 1005.2 hPa | 0 mm | 1.34 m/s, 153° | - | - |
| 1777983558 | 17.78° C | 49% | 1005.4 hPa | 0 mm | 1.34 m/s, 160° | - | - |
| 1777983557 | 17.78° C | 49% | 1005.4 hPa | 0 mm | 1.34 m/s, 160° | - | - |
* Rain latest hour (hover to see other rain measurements)
** Current wind speed in m/s (hover to see current wind gust speed)